Location: *
(37.5724°S, 58.0067°E)
Time: 00:56:27
(UTC+00:00)

Cosmos 1980 - Visible Passes

Search period start: 24 January 2021 00:00
Search period end: 03 February 2021 00:00
Orbit: 841 x 846 km, 71.0° (Epoch: 23 January)

Date Brightness Start Highest point End Pass type
(mag) Time Alt. Az. Time Alt. Az. Time Alt. Az.
24 Jan 5.9 21:26:20 10° S 21:30:41 22° SE 21:34:59 10° ENE visible
24 Jan 3.8 23:09:31 10° SSW 23:15:05 53° WNW 23:17:30 32° NNW visible
25 Jan 5.9 21:11:48 10° S 21:16:03 21° SE 21:19:53 11° E visible
25 Jan 3.7 22:54:53 10° SSW 23:00:29 56° WNW 23:01:37 48° NNW visible
26 Jan 5.9 20:57:15 10° S 21:01:24 20° SE 21:04:17 14° E visible
26 Jan 3.7 22:40:15 10° SSW 22:45:53 59° WNW 22:46:02 59° WNW visible
27 Jan 5.9 20:42:44 10° S 20:46:45 19° SE 20:48:56 16° E visible
27 Jan 3.8 22:25:38 10° SSW 22:30:42 58° WSW 22:30:42 58° WSW visible
28 Jan 5.8 20:28:12 10° S 20:32:07 18° SE 20:33:44 16° ESE visible
28 Jan 4.1 22:11:00 10° SSW 22:15:31 52° WSW 22:15:31 52° WSW visible
29 Jan 5.9 20:13:42 10° SSE 20:17:28 18° SE 20:18:41 17° ESE visible
29 Jan 4.4 21:56:23 10° SSW 22:00:28 46° SW 22:00:28 46° SW visible
30 Jan 5.9 19:59:11 10° SSE 20:02:50 17° SE 20:03:43 16° ESE visible
30 Jan 4.6 21:41:46 10° SSW 21:45:31 42° SW 21:45:31 42° SW visible
31 Jan 5.9 19:44:41 10° SSE 19:48:11 16° SE 19:48:51 16° ESE visible
31 Jan 4.8 21:27:09 10° SSW 21:30:39 38° SSW 21:30:39 38° SSW visible
01 Feb 5.9 19:30:11 10° SSE 19:33:32 16° SE 19:34:03 15° ESE visible
01 Feb 4.9 21:12:32 10° SSW 21:15:52 36° SSW 21:15:52 36° SSW visible
02 Feb 5.9 19:15:43 10° SSE 19:18:53 15° SE 19:19:19 15° SE visible
02 Feb 5.0 20:57:55 10° SSW 21:01:07 35° SSW 21:01:07 35° SSW visible
